Butte, MT

4:37 PM MST on November 17, 2017 (GMT -0700)
Mooney

Weather History for KBTM - November, 2014

Change the Weather History Date:

Friday, November 7, 2014

  Actual Average Record
Temperature  
Mean Temperature 39 °F 32 °F  
Max Temperature 53 °F 45 °F 67 °F (1999)
Min Temperature 25 °F 20 °F -11 °F (1936)
Degree Days  
Heating Degree Days 26 33  
Month to date heating degree days 181 219  
Since 1 July heating degree days 1302 1590  
Cooling Degree Days 0 0  
Month to date cooling degree days 0 0  
Year to date cooling degree days 78 81  
Moisture  
Dew Point 29 °F    
Average Humidity 67    
Maximum Humidity 92    
Minimum Humidity 42    
Precipitation  
Precipitation 0.02 in 0.02 in 0.37 in (1980)
Month to date precipitation 0.15 0.14  
Year to date precipitation 13.42 11.80  
Sea Level Pressure  
Sea Level Pressure 30.27 in    
Wind  
Wind Speed 8 mph (NW)    
Max Wind Speed 26 mph    
Max Gust Speed 38 mph    
Visibility 10 miles    
Events Rain    
T = Trace of Precipitation, MM = Missing Value Source: NWS Daily Summary

Daily Weather History Graph

Daily Weather History Graph

Search for Another Location

Airport or City:

Trip Planner

Search our weather history database for the weather conditions in past years. The results will help you decide how hot, cold, wet, or windy it might be!

Date:

Astronomy

Nov. 07, 2014 Rise Set
Actual Time 7:19 AM MST 5:07 PM MST
Civil Twilight 6:47 AM MST 5:39 PM MST
Nautical Twilight 6:11 AM MST 6:14 PM MST
Astronomical Twilight 5:36 AM MST 6:49 PM MST
Moon 6:02 PM MST (11/7) 7:59 AM MST (11/7)
Length of Visible Light 10h 51m
Length of Day
9h 48m
Full, 99% of the Moon is Illuminated
Nov 7
Full
Nov 14
Last Quarter
Nov 22
New
Nov 29
First Quarter
Dec 6
Full

Hourly Weather History & Observations

Time (MST) Temp. Windchill Dew Point Humidity Pressure Visibility Wind Dir Wind Speed Gust Speed Precip Events Conditions
12:53 AM 45.0 °F 42.6 °F 41.0 °F 86% 30.02 in 10.0 mi NW 4.6 mph - 0.02 in Rain Light Rain
1:53 AM 45.0 °F 41.8 °F 39.0 °F 80% 30.01 in 10.0 mi WNW 5.8 mph - 0.00 in   Overcast
2:53 AM 45.0 °F 40.6 °F 39.0 °F 80% 30.03 in 10.0 mi NW 8.1 mph - N/A   Mostly Cloudy
3:53 AM 42.1 °F 37.7 °F 35.1 °F 76% 30.01 in 10.0 mi West 6.9 mph - N/A   Clear
4:53 AM 43.0 °F 39.5 °F 34.0 °F 71% 30.07 in 10.0 mi North 5.8 mph - N/A   Mostly Cloudy
5:53 AM 42.1 °F 36.6 °F 30.9 °F 65% 30.12 in 10.0 mi West 9.2 mph - N/A   Partly Cloudy
6:53 AM 41.0 °F 35.2 °F 28.0 °F 60% 30.19 in 10.0 mi NW 9.2 mph - N/A   Mostly Cloudy
7:53 AM 39.9 °F 34.5 °F 27.0 °F 60% 30.24 in 10.0 mi WNW 8.1 mph - N/A   Partly Cloudy
8:53 AM 41.0 °F 32.5 °F 27.0 °F 57% 30.25 in 10.0 mi NW 17.3 mph 21.9 mph N/A   Partly Cloudy
9:53 AM 44.1 °F 36.8 °F 25.0 °F 47% 30.27 in 10.0 mi NW 16.1 mph 21.9 mph N/A   Clear
10:53 AM 45.0 °F 37.9 °F 25.0 °F 46% 30.28 in 10.0 mi NW 16.1 mph 23.0 mph N/A   Scattered Clouds
11:53 AM 46.0 °F 39.6 °F 26.1 °F 46% 30.29 in 10.0 mi WNW 15.0 mph 20.7 mph N/A   Partly Cloudy
12:53 PM 48.0 °F - 26.1 °F 42% 30.31 in 10.0 mi NW 11.5 mph - N/A   Overcast
1:53 PM 48.0 °F - 27.0 °F 44% 30.29 in 10.0 mi NW 9.2 mph - N/A   Partly Cloudy
2:53 PM 48.0 °F - 27.0 °F 44% 30.31 in 10.0 mi WNW 11.5 mph - N/A   Clear
3:53 PM 46.9 °F - 27.0 °F 46% 30.34 in 10.0 mi NW 6.9 mph - N/A   Clear
4:53 PM 45.0 °F 39.7 °F 27.0 °F 49% 30.37 in 10.0 mi NNW 10.4 mph - N/A   Clear
5:53 PM 39.9 °F 35.8 °F 28.0 °F 63% 30.39 in 10.0 mi WNW 5.8 mph - N/A   Clear
6:53 PM 37.9 °F 35.5 °F 28.0 °F 68% 30.41 in 10.0 mi NW 3.5 mph - N/A   Clear
7:53 PM 33.1 °F 30.0 °F 27.0 °F 78% 30.44 in 10.0 mi SE 3.5 mph - N/A   Clear
8:53 PM 28.0 °F 22.8 °F 25.0 °F 88% 30.45 in 10.0 mi SSE 4.6 mph - N/A   Clear
9:53 PM 27.0 °F 23.0 °F 24.1 °F 89% 30.44 in 10.0 mi ESE 3.5 mph - N/A   Clear
10:53 PM 26.1 °F 18.4 °F 23.0 °F 88% 30.44 in 10.0 mi SSE 6.9 mph - N/A   Clear
11:53 PM 25.0 °F - 21.9 °F 88% 30.42 in 10.0 mi Calm Calm - N/A   Clear